[[{"header":{"parameterUnit":"m.s-1","parameterCategory":1,"la1":30.2991,"la2":30.254,"lo1":-89.0895,"lo2":-89.0444,"dy":0.0017,"dx":0.0017,"nx":28,"ny":28,"refTime":"2024-05-17T03:00:00:Z","depth":0,"parameterNumber":2,"parameterNumberName":"U-component_of_WINDS"},"data":[0,0,0,0,0,0,0,0,0,0,0,0,0,0,0,0,0,0,0,0,0,0,0,0,0,0,0,0,0,0,0,0,0,0,0,0,0,0,0,0,0,0,0,0,0,0,0,0,0,0,0,0,0,0,0,0,0,0,-11.8904,-11.8905,0,-11.9059,-11.906,-11.9062,-11.8995,-11.8992,-11.8988,-11.8985,-11.9132,-11.9139,-11.9146,0,0,0,0,0,0,0,0,0,0,0,0,0,-11.854,-11.8547,-11.8903,-11.8905,-11.8907,-11.9058,-11.9061,-11.9063,-11.8996,-11.8992,-11.8987,-11.8983,-11.9129,-11.9138,-11.9147,0,0,0,0,0,0,0,0,0,0,0,0,0,-11.8696,-11.8549,-11.8903,-11.8893,-11.8893,-11.9058,-11.9061,-11.9063,-11.8997,-11.8991,-11.8986,-11.8981,-11.9126,-11.9137,-11.9148,-11.9329,0,0,-11.9182,-11.9187,0,0,0,0,0,0,0,0,-11.8687,-11.871,-11.8892,-11.8894,-11.8895,-11.9002,-11.8986,-11.9152,-11.8999,-11.8957,-11.8984,-11.8978,-11.9092,-11.9106,-11.9147,-11.9335,-11.9342,-11.9183,-11.919,-11.9195,-11.9198,0,0,0,0,0,0,0,-11.8677,-11.8702,-11.8964,-11.8895,-11.8897,-11.8877,-11.8893,-11.9017,-11.9054,-11.896,-11.8956,-11.8976,-11.9092,-11.9136,-11.915,-11.9344,-11.9183,-11.9193,-11.9199,-11.9204,-11.9686,-11.9692,0,0,0,0,0,0,-11.8667,-11.8694,-11.8959,-11.8969,-11.8776,-11.8888,-11.8906,-11.8973,-11.9053,-11.9059,-11.8981,-11.8972,-11.912,-11.9137,-11.9155,-11.9368,-11.9194,-11.9205,-11.9211,-11.968,-11.9688,-11.9694,0,0,0,0,0,0,-11.866,-11.8692,-11.8953,-11.8831,-11.8862,-11.89,-11.8976,-11.8979,-11.9023,-11.9068,-11.9073,-11.902,-11.9116,-11.9139,-11.9286,-11.9372,-11.921,-11.922,-11.9673,-11.9683,-11.9691,-11.9798,0,0,0,0,0,0,-11.865,-11.8689,-11.876,-11.8833,-11.8869,-11.9085,-11.8982,-11.8986,-11.9044,-11.9035,-11.9106,-11.9112,-11.9114,-11.927,-11.9297,-11.9385,-11.9229,-11.9665,-11.9677,-11.9688,-11.9787,-11.981,-11.9829,0,0,0,0,0,-11.8637,-11.8782,-11.8764,-11.8796,-11.8959,-11.909,-11.911,-11.9112,-11.9052,-11.9121,-11.915,-11.911,-11.9361,-11.9286,-11.9316,-11.9408,-11.966,-11.9674,-11.9687,-11.9777,-11.9805,-11.9829,0,0,0,0,0,0,-11.8712,-11.8791,-11.8772,-11.8945,-11.9012,-11.9079,-11.9166,-11.9142,-11.9224,-11.9211,-11.9208,-11.9224,-11.9376,-11.9408,-11.9323,-11.9586,-11.95,-11.9521,-11.9558,-11.9585,-11.9606,-11.9592,-11.9238,0,0,0,0,0,-11.8751,-11.8854,-11.8916,-11.9062,-11.9098,-11.9127,-11.9184,-11.9181,-11.9248,-11.9274,-11.9314,-11.9377,-11.947,-11.9531,-11.9619,-11.9794,-11.9806,-11.9872,-11.9894,-11.9911,-11.9926,-12.0018,-12.0047,-11.974,-11.974,-11.974,0,0,-11.8827,-11.8883,-11.8947,-11.9079,-11.913,-11.9233,-11.915,-11.9263,-11.9338,-11.929,-11.943,-11.9463,-11.9534,-11.9695,-11.9768,-11.9726,-12.0015,-11.9929,-11.9942,-11.9948,-12.0035,-12.0064,-12.009,-11.9749,-11.9748,-11.9746,0,0,-11.9019,-11.9075,-11.9201,-11.9256,-11.9337,-11.9357,-11.9388,-11.946,-11.948,-11.9623,-11.9588,-11.9678,-11.9839,-11.989,-11.9937,-12.0154,-12.0118,-12.0184,-12.0291,-12.0381,-12.0405,-12.0426,-12.0498,-12.0525,-12.02,-12.0201,-12.0201,0,-11.9102,-11.926,-11.9269,-11.9385,-11.9442,-11.9411,-11.9537,-11.9589,-11.9692,-11.9731,-11.9685,-11.9887,-11.9933,-12.0104,-12.0157,-12.0199,-12.023,-12.0171,-12.0402,-12.0423,-12.0443,-12.0511,-12.0539,-12.0207,-12.0207,-12.0206,-12.0205,0,-11.9356,-11.9467,-11.956,-11.9665,-11.9734,-11.9855,-11.9879,-11.9947,-11.9941,-11.9964,-12.0109,-12.0164,-12.0262,-12.0305,-12.0297,-12.0475,-12.0446,-12.0402,-12.0314,-12.0479,-12.0543,-12.057,-12.0217,-12.0215,-12.0213,-12.0211,0,0,-11.9591,-11.9705,-11.9738,-11.9785,-11.9875,-11.9958,-12.0079,-12.0179,-12.0235,-12.031,-12.0406,-12.0547,-12.0507,-12.056,-12.0559,-12.064,-12.0803,-12.0585,-12.0586,-12.0618,-12.0997,-12.1024,-12.1055,-12.0784,-12.0789,-12.0793,-12.0989,0,-11.9784,-11.9997,-12.001,-12.0201,-12.0301,-12.0275,-12.0379,-12.0443,-12.047,-12.0556,-12.0585,-12.0682,-12.0625,-12.0657,-12.0736,-12.0766,-12.0877,-12.0753,-12.0867,-12.0871,-12.0842,-12.109,-12.1119,-12.13,-12.1015,-12.1019,-12.1022,0,-12.0036,-12.0123,-12.0325,-12.0401,-12.0444,-12.0537,-12.063,-12.0715,-12.0787,-12.0801,-12.0865,-12.0853,-12.0973,-12.0889,-12.105,-12.0966,-12.1015,-12.1037,-12.1044,-12.1048,-12.0951,-12.1093,-12.1359,-12.1383,-12.1063,-12.106,-12.1057,0,-12.0179,-12.0347,-12.0489,-12.0532,-12.0626,-12.0692,-12.0733,-12.0801,-12.0861,-12.0943,-12.098,-12.1074,-12.1123,-12.1195,-12.1208,-12.1147,-12.1369,-12.1286,-12.1378,-12.1378,-12.1419,-12.1414,-12.1689,-12.1464,-12.1464,-12.1463,-12.1462,0,-12.0389,-12.0511,-12.0555,-12.0641,-12.0778,-12.0793,-12.0927,-12.0964,-12.1025,-12.1116,-12.1101,-12.1185,-12.1202,-12.1289,-12.1301,-12.143,-12.1455,-12.1465,-12.1465,-12.1462,-12.146,-12.1487,-12.1472,-12.147,-12.1469,-12.1467,-12.1466,0,-12.0567,-12.0603,-12.0755,-12.0835,-12.0858,-12.0954,-12.102,-12.1102,-12.113,-12.1245,-12.1273,-12.1315,-12.1417,-12.1441,-12.1562,-12.157,-12.1722,-12.1713,-12.1697,-12.1694,-12.1782,-12.1771,-12.2077,-12.2116,-12.1873,-12.1875,-12.1877,0,-12.0695,-12.0789,-12.0881,-12.0943,-12.0989,-12.1089,-12.1152,-12.1172,-12.1236,-12.1329,-12.1398,-12.1501,-12.1582,-12.1747,-12.1786,-12.1878,-12.1867,-12.1969,-12.188,-12.1874,-12.186,-12.1852,-12.1859,-12.1982,-12.1984,-12.1987,-12.1988,0,-12.0915,-12.0929,-12.1022,-12.1122,-12.1199,-12.1277,-12.1352,-12.1402,-12.1433,-12.1506,-12.1613,-12.1677,-12.1804,-12.1903,-12.1997,-12.2036,-12.2015,-12.2018,-12.2043,-12.2036,-12.202,-12.2024,-12.1735,-12.2008,-12.2006,-12.2005,-12.2004,-12.2003,-12.1067,-12.115,-12.1228,-12.1332,-12.1392,-12.1463,-12.1543,-12.1585,-12.1676,-12.1782,-12.1789,-12.1904,-12.1975,-12.21,-12.2146,-12.2233,-12.2201,-12.2239,-12.2247,-12.2254,-12.2259,-12.2015,-12.2251,-12.2251,-12.225,-12.225,-12.225,0,-12.1281,-12.1332,-12.1428,-12.1536,-12.1617,-12.1601,-12.1683,-12.175,-12.1853,-12.1924,-12.2007,-12.2129,-12.2227,-12.2277,-12.2374,-12.2434,-12.2427,-12.2458,-12.2449,-12.2458,-12.2285,-12.2251,-12.2462,-12.2462,-12.2462,-12.2462,-12.2462,-12.2462,-12.1401,-12.1539,-12.1563,-12.173,-12.1779,-12.1895,-12.1943,-12.2008,-12.2064,-12.2203,-12.2286,-12.232,-12.2382,-12.2483,-12.2571,-12.2583,-12.2616,-12.265,-12.2657,-12.2492,-12.247,-12.2449,-12.2417,-12.2659,-12.2659,-12.2821,-12.2823,-12.2824]},{"header":{"parameterUnit":"m.s-1","parameterCategory":1,"la1":30.2991,"la2":30.254,"lo1":-89.0895,"lo2":-89.0444,"dy":0.0017,"dx":0.0017,"nx":28,"ny":28,"refTime":"2024-05-17T03:00:00:Z","depth":0,"parameterNumber":3,"parameterNumberName":"V-component_of_WINDS"},"data":[0,0,0,0,0,0,0,0,0,0,0,0,0,0,0,0,0,0,0,0,0,0,0,0,0,0,0,0,0,0,0,0,0,0,0,0,0,0,0,0,0,0,0,0,0,0,0,0,0,0,0,0,0,0,0,0,0,0,2.677,2.6768,0,2.6581,2.6579,2.6577,2.6433,2.6431,2.643,2.6429,2.6234,2.623,2.6226,0,0,0,0,0,0,0,0,0,0,0,0,0,2.7005,2.7001,2.677,2.6768,2.6765,2.6581,2.6579,2.6576,2.6433,2.6431,2.643,2.6428,2.6235,2.6231,2.6226,0,0,0,0,0,0,0,0,0,0,0,0,0,2.6868,2.7,2.677,2.6672,2.6661,2.6582,2.6579,2.6576,2.6433,2.6431,2.6429,2.6427,2.6237,2.6231,2.6225,2.6229,0,0,2.6207,2.6205,0,0,0,0,0,0,0,0,2.6876,2.686,2.6688,2.6678,2.6666,2.6528,2.659,2.6459,2.6434,2.652,2.6429,2.6426,2.6333,2.6319,2.6288,2.622,2.6211,2.6207,2.6203,2.62,2.6199,0,0,0,0,0,0,0,2.6886,2.6867,2.6695,2.6686,2.6672,2.6636,2.6615,2.6565,2.644,2.6512,2.6501,2.6481,2.6327,2.6294,2.6283,2.6208,2.6207,2.6201,2.6198,2.6196,2.6133,2.6135,0,0,0,0,0,0,2.6911,2.6876,2.6701,2.6689,2.6768,2.6634,2.661,2.6575,2.644,2.6418,2.6483,2.6475,2.6306,2.629,2.6275,2.627,2.62,2.6195,2.6192,2.6131,2.6134,2.6136,0,0,0,0,0,0,2.6917,2.6897,2.6709,2.678,2.6753,2.6632,2.6594,2.6572,2.6539,2.6418,2.6395,2.6473,2.6303,2.6284,2.6242,2.6262,2.6192,2.6187,2.6129,2.6132,2.6135,2.6261,0,0,0,0,0,0,2.6924,2.69,2.69,2.6781,2.675,2.6679,2.6595,2.657,2.653,2.6518,2.6402,2.6381,2.63,2.6251,2.6236,2.6252,2.6182,2.6127,2.613,2.6134,2.6255,2.6268,2.628,0,0,0,0,0,2.6933,2.6943,2.6901,2.688,2.6748,2.668,2.6662,2.6569,2.6532,2.6531,2.6453,2.6385,2.6263,2.6248,2.6229,2.6245,2.6125,2.6129,2.6134,2.6249,2.6266,2.6279,0,0,0,0,0,0,2.7066,2.6925,2.6877,2.6849,2.6778,2.6656,2.6652,2.659,2.6527,2.6518,2.6405,2.638,2.635,2.6293,2.628,2.6241,2.6185,2.6186,2.6279,2.6294,2.6306,2.632,2.6177,0,0,0,0,0,2.7093,2.705,2.6929,2.6916,2.6883,2.6774,2.6741,2.6676,2.6597,2.6566,2.6485,2.6412,2.6356,2.6322,2.6264,2.6246,2.6219,2.6248,2.626,2.6271,2.6273,2.6259,2.627,2.615,2.615,2.615,0,0,2.7146,2.7064,2.7044,2.694,2.6878,2.6836,2.675,2.6709,2.6676,2.656,2.6515,2.6454,2.6364,2.6334,2.6317,2.6285,2.63,2.6276,2.6286,2.6281,2.6264,2.6276,2.6286,2.6153,2.6152,2.6152,0,0,2.7222,2.7156,2.7138,2.7077,2.6984,2.6911,2.6908,2.6795,2.675,2.6704,2.6616,2.6576,2.6483,2.6422,2.6379,2.6435,2.6369,2.6419,2.6484,2.6472,2.6481,2.6489,2.6508,2.6517,2.6421,2.6422,2.6422,0,2.7301,2.7234,2.7136,2.7101,2.7058,2.6952,2.6932,2.6878,2.6771,2.6743,2.671,2.6592,2.6523,2.6478,2.6492,2.6461,2.6452,2.6431,2.6488,2.6495,2.65,2.6518,2.6525,2.6428,2.6428,2.6427,2.6426,0,2.7335,2.7291,2.7287,2.7187,2.7144,2.7117,2.7014,2.6982,2.6922,2.6853,2.6808,2.6722,2.6646,2.663,2.657,2.6577,2.656,2.6509,2.645,2.652,2.6534,2.654,2.6438,2.6435,2.6433,2.6432,0,0,2.7489,2.7336,2.7336,2.7289,2.7179,2.7143,2.7111,2.7037,2.7012,2.6942,2.6912,2.6837,2.6789,2.6741,2.6672,2.6662,2.6711,2.6612,2.6608,2.6633,2.6713,2.6752,2.6761,2.6668,2.6669,2.6669,2.6721,0,2.7547,2.7485,2.7396,2.7363,2.7321,2.722,2.7192,2.7122,2.7058,2.7012,2.694,2.6889,2.683,2.68,2.6785,2.6709,2.6726,2.6704,2.6638,2.6637,2.6664,2.6769,2.6809,2.6862,2.6725,2.6726,2.6727,0,2.7607,2.7543,2.7507,2.74,2.7379,2.7356,2.7281,2.7239,2.7157,2.7111,2.7058,2.6985,2.6946,2.6894,2.6839,2.6826,2.6794,2.6753,2.6752,2.6742,2.6686,2.6761,2.6876,2.6884,2.6735,2.6734,2.6734,0,2.7723,2.7628,2.7593,2.7557,2.7432,2.7418,2.7365,2.7281,2.7243,2.7177,2.7151,2.7082,2.7044,2.6993,2.6902,2.6873,2.6857,2.6797,2.6817,2.682,2.6818,2.6819,2.6929,2.6799,2.6799,2.6798,2.6798,0,2.7797,2.7778,2.7644,2.7623,2.7599,2.7497,2.7477,2.7414,2.7341,2.7306,2.7214,2.7183,2.7066,2.7022,2.6951,2.6916,2.69,2.6861,2.6842,2.6869,2.6874,2.6846,2.684,2.68,2.68,2.68,2.6799,0,2.7922,2.7831,2.7787,2.7673,2.7644,2.7632,2.7533,2.7509,2.744,2.7397,2.7381,2.7272,2.7214,2.712,2.7034,2.6987,2.6965,2.6934,2.6993,2.6982,2.7007,2.7006,2.7103,2.711,2.6976,2.6978,2.6979,0,2.7975,2.7959,2.7843,2.7814,2.7764,2.7718,2.7678,2.7578,2.754,2.7446,2.7433,2.7369,2.7312,2.7225,2.7138,2.7072,2.7039,2.7077,2.7028,2.7055,2.7039,2.7041,2.7039,2.7088,2.709,2.7092,2.7093,0,2.8079,2.8035,2.7982,2.7914,2.787,2.781,2.7747,2.7728,2.7613,2.7575,2.7516,2.7472,2.7386,2.7323,2.7245,2.719,2.7123,2.711,2.711,2.7137,2.7173,2.7154,2.7024,2.7108,2.7106,2.7105,2.7104,2.7104,2.8169,2.815,2.8067,2.801,2.7952,2.7895,2.7867,2.7795,2.7744,2.7666,2.761,2.7554,2.7473,2.7362,2.731,2.7265,2.7235,2.7237,2.7237,2.7239,2.7249,2.7181,2.7251,2.725,2.725,2.7249,2.7249,0,2.8269,2.821,2.816,2.8074,2.803,2.7972,2.7898,2.7865,2.7818,2.7748,2.7694,2.7627,2.7565,2.7474,2.7406,2.7387,2.7355,2.7373,2.7373,2.7361,2.728,2.7286,2.74,2.74,2.74,2.74,2.74,2.74,2.8316,2.828,2.8227,2.8162,2.8102,2.8048,2.8012,2.7958,2.7902,2.7831,2.778,2.7721,2.7642,2.7568,2.7509,2.7483,2.7463,2.7491,2.7456,2.7381,2.7367,2.7354,2.7359,2.7487,2.7487,2.7541,2.7541,2.7542]}]]